Location: New Town
(33.2710°N, 90.7534°W)
Time: 12:28:45
(UTC+00:00)

Courier 1B - Visible Passes

Search period start: 13 May 2021 00:00
Search period end: 23 May 2021 00:00
Orbit: 962 x 1209 km, 28.3° (Epoch: 12 May)

Date Brightness Start Highest point End Pass type
(mag) Time Alt. Az. Time Alt. Az. Time Alt. Az.
13 May 9.2 07:52:15 24° SE 07:52:15 24° SE 07:56:17 10° E visible
13 May 8.2 09:39:07 23° SW 09:43:47 52° SSE 09:51:21 10° E visible
14 May 10.1 07:01:34 10° ESE 07:01:34 10° ESE 07:01:41 10° ESE visible
14 May 8.2 08:48:27 41° SSW 08:49:55 45° SSE 08:57:15 10° E visible
14 May 8.2 10:36:25 10° WSW 10:43:58 61° S 10:51:43 10° E visible
15 May 8.7 07:57:46 34° SE 07:57:46 34° SE 08:03:05 10° E visible
15 May 8.1 09:44:38 20° WSW 09:50:02 59° S 09:57:43 10° E visible
16 May 9.7 07:07:05 17° ESE 07:07:05 17° ESE 07:08:49 10° E visible
16 May 8.0 08:53:57 42° SW 08:56:08 55° S 09:03:41 10° E visible
17 May 8.2 08:03:17 47° SE 08:03:17 47° SE 08:09:36 10° E visible
17 May 8.0 09:50:10 16° WSW 09:56:20 61° S 10:04:01 10° ESE visible
18 May 9.3 07:12:39 23° ESE 07:12:39 23° ESE 07:15:29 10° E visible
18 May 7.9 08:59:32 37° WSW 09:02:25 60° S 09:10:01 10° E visible
19 May 7.9 08:08:56 57° SSE 08:08:56 57° SSE 08:15:59 10° E visible
19 May 8.0 09:55:49 12° W 10:02:37 56° S 10:10:12 10° ESE visible
20 May 9.0 07:18:24 29° ESE 07:18:24 29° ESE 07:21:56 10° E visible
20 May 7.9 09:05:17 32° WSW 09:08:44 59° S 09:16:16 10° ESE visible
21 May 7.7 08:14:49 60° S 08:14:52 60° S 08:22:17 10° ESE visible
21 May 8.2 10:01:53 10° W 10:08:52 46° SSW 10:16:11 10° SE visible
22 May 8.8 07:24:28 32° ESE 07:24:28 32° ESE 07:28:17 10° E visible
22 May 8.0 09:11:22 28° WSW 09:15:01 51° S 09:22:22 10° ESE visible
